Temp
76 80 83 79 68 70 65 65 72 70 71 74 77 74 74 72 69 65 76 77 81 81 81 79 74 76 75 75 75 75 75 76 76 76 76 76 75 76 75 75 75 75 75 75 74 74 73 73 72
82 79 80 77 66 61 65 70 67 72 73 76 75 74 73 67 68 66 71 77 81 81 81 80 72 74 74 74 74 75 75 75 75 75 75 75 75 75 75 74 75 75 75 75 74 74 73 72 72
79 81 75 71 68 63 65 70 71 71 73 74 72 74 72 67 69 71 78 79 81 81 81 79 72 74 74 74 74 74 74 75 75 75 75 75 74 74 74 73 73 74 75 74 74 73 72 72 72
77 79 76 66 63 67 69 73 73 70 72 74 75 69 72 73 74 76 78 80 80 80 81 73 72 74 74 74 74 74 74 74 74 74 74 74 74 73 73 73 73 73 73 74 73 72 72 71 71
82 74 65 63 65 69 73 74 75 72 73 74 73 67 67 72 76 76 78 80 79 80 80 78 72 73 73 74 74 74 74 74 74 74 74 73 73 73 72 72 72 72 72 72 72 72 72 72 71
72 72 61 60 65 69 72 74 74 74 74 72 72 71 69 69 69 75 79 80 80 79 79 78 69 70 71 72 73 73 73 73 73 73 73 73 72 72 72 72 72 72 72 72 72 72 72 71 71
66 65 61 62 64 67 68 73 73 73 73 72 76 68 65 65 70 77 79 80 76 77 78 79 78 74 67 69 70 71 72 72 72 72 72 71 71 71 71 70 71 71 72 72 72 71 71 71 71
71 66 60 63 63 62 69 72 73 74 72 74 75 69 63 68 70 77 77 71 71 72 74 75 79 79 79 77 66 67 69 70 70 70 69 67 68 68 67 67 69 70 70 70 70 70 70 70 69
71 61 58 61 62 64 71 70 73 73 71 70 70 73 74 71 73 74 74 68 68 69 71 71 72 77 79 79 73 66 64 66 67 68 65 68 79 77 74 66 66 68 68 69 69 69 69 67 66
65 59 60 66 67 67 69 70 72 71 70 69 69 68 71 70 72 70 70 67 66 67 68 71 72 76 78 77 76 74 73 76 76 77 77 79 77 77 72 66 62 64 64 66 68 68 66 66 78
64 59 63 65 68 68 68 70 73 71 68 74 71 65 63 69 71 70 72 72 70 72 69 69 76 78 77 77 78 74 70 71 71 70 76 77 77 78 78 78 78 77 65 78 76 76 78 76 76
58 64 64 65 65 67 67 70 69 72 73 73 76 70 64 67 70 72 72 72 71 73 72 73 77 76 76 78 77 78 76 72 73 75 76 76 77 77 77 78 77 76 78 76 76 77 76 75 76
60 62 65 67 65 67 68 68 69 71 75 73 73 66 64 67 71 73 74 74 73 73 75 75 76 76 77 76 77 78 77 77 79 78 77 77 77 76 77 77 77 77 78 77 76 76 76 76 77
64 63 64 66 65 67 65 68 68 70 70 70 68 64 65 67 68 67 68 70 72 74 75 76 75 76 77 76 76 77 78 78 78 79 78 76 76 76 76 76 77 77 76 73 74 74 73 76 75
63 56 62 64 64 65 67 63 64 69 68 64 64 64 65 66 67 68 73 73 73 74 75 74 74 75 75 76 77 77 77 77 78 78 77 76 76 76 76 76 76 75 75 75 75 71 73 71 73
51 53 50 63 63 65 65 58 66 67 68 66 62 62 63 64 67 74 75 75 75 76 74 75 74 74 75 76 76 77 78 78 78 78 78 75 75 75 75 75 75 75 74 74 74 73 73 72 73
47 42 48 55 63 62 63 60 64 65 66 66 65 62 62 65 71 74 75 75 75 76 76 75 75 75 75 75 76 76 76 78 77 76 75 73 73 74 75 73 72 74 73 72 71 72 70 70 70
42 43 49 52 58 59 59 60 65 63 64 66 66 68 68 69 71 74 74 74 75 75 76 76 75 75 74 75 75 75 73 71 72 71 71 71 71 71 72 71 69 71 69 69 68 67 68 67 66
51 48 48 56 58 58 59 60 66 65 63 65 66 67 68 69 70 73 73 73 72 73 74 75 74 73 74 73 72 72 70 68 67 67 67 68 68 68 68 68 67 68 66 65 65 65 64 65 66
46 45 45 48 52 56 58 56 64 64 65 67 67 66 68 68 66 66 69 69 70 69 70 70 70 70 71 72 72 72 70 68 67 65 64 65 64 64 65 64 64 64 64 63 62 62 62 65 65
44 42 44 46 49 55 56 55 57 64 65 65 68 70 69 67 65 64 63 65 66 66 67 67 67 68 69 69 68 68 67 66 64 63 62 61 62 61 60 61 61 60 61 59 59 59 59 57 62
41 51 49 44 44 39 56 44 56 62 62 62 65 67 68 67 66 65 62 62 63 61 63 63 64 64 65 68 69 68 67 62 61 61 60 59 59 58 58 58 58 58 58 56 56 57 56 56 55
49 53 48 45 44 43 44 46 57 58 58 61 64 65 68 66 64 61 61 59 59 60 59 61 61 61 63 64 66 64 61 60 60 60 58 58 57 56 56 56 55 55 55 54 54 54 54 54 53
53 47 44 44 42 34 42 46 51 53 58 61 60 60 60 60 60 59 58 58 58 58 58 59 59 57 59 59 61 60 58 57 56 57 56 56 55 54 53 54 53 53 53 52 53 53 52 51 52
47 45 33 32 31 33 38 41 50 55 57 61 58 56 57 57 57 56 56 57 56 56 56 56 54 54 56 53 55 54 54 56 56 54 53 53 53 52 50 51 51 51 51 51 51 50 49 49 48
43 43 39 32 31 34 38 36 47 53 55 57 58 56 56 56 56 56 56 55 54 52 51 50 49 49 53 49 48 52 52 51 53 52 51 50 50 49 49 49 49 48 48 49 49 48 47 47 46
41 40 46 38 33 35 37 41 51 50 51 53 52 53 53 54 54 53 51 55 51 50 50 48 47 45 48 47 48 48 50 50 48 48 48 47 47 47 46 46 46 46 46 46 47 45 43 44 43
48 48 37 38 30 30 36 37 47 45 48 52 51 51 51 52 51 50 47 47 46 47 46 45 45 43 45 46 47 46 46 47 46 46 45 45 44 45 44 44 44 44 43 43 43 42 41 41 40
40 39 41 44 40 35 33 42 52 52 51 50 52 52 51 51 49 47 44 44 43 43 43 44 45 45 45 45 45 44 43 43 44 43 43 43 43 43 41 41 41 41 41 41 41 40 40 39 39
46 41 43 37 32 37 37 43 51 53 55 54 52 52 53 51 49 47 45 44 43 44 44 45 44 43 42 43 42 40 41 41 40 41 41 41 40 40 39 40 39 39 39 39 39 39 39 38 37
MSLP
1015.87 1015.77 1015.48 1014.84 1014.26 1012.58 1011.54 1011.72 1011.87 1011.80 1012.12 1012.78 1013.04 1013.15 1013.33 1014.22 1014.72 1016.02 1017.19 1017.64 1017.67 1018.15 1018.67 1019.37 1019.67 1019.83 1020.09 1020.28 1020.39 1020.45 1020.49 1020.64 1020.73 1020.85 1021.00 1021.17 1021.34 1021.41 1021.58 1021.72 1021.79 1021.69 1021.73 1021.73 1021.73 1021.72 1021.70 1021.68 1021.60
1015.62 1015.41 1015.15 1014.01 1013.04 1011.62 1011.21 1011.64 1011.72 1011.94 1012.61 1013.10 1013.55 1013.68 1013.81 1014.95 1016.29 1017.07 1017.47 1017.90 1017.97 1018.29 1018.77 1019.25 1019.92 1020.01 1020.27 1020.46 1020.56 1020.64 1020.76 1020.90 1021.06 1021.19 1021.30 1021.38 1021.55 1021.61 1021.72 1021.85 1021.91 1021.91 1021.85 1021.87 1021.88 1021.88 1021.88 1021.85 1021.78
1015.73 1015.15 1014.29 1013.23 1012.29 1011.18 1011.04 1011.49 1011.85 1012.68 1013.18 1013.19 1013.61 1014.22 1014.61 1015.73 1016.78 1017.17 1017.35 1017.84 1018.19 1018.51 1018.98 1019.58 1020.08 1020.26 1020.44 1020.60 1020.78 1020.91 1021.11 1021.27 1021.37 1021.48 1021.59 1021.71 1021.80 1021.91 1022.01 1022.08 1022.03 1021.97 1021.90 1021.92 1021.91 1021.93 1021.95 1021.93 1021.86
1015.39 1014.74 1014.37 1013.09 1011.75 1011.66 1011.44 1011.54 1012.09 1012.80 1013.29 1013.53 1013.65 1014.36 1015.63 1016.51 1016.74 1017.11 1017.78 1017.99 1018.24 1018.67 1019.16 1020.05 1020.28 1020.48 1020.68 1020.82 1020.99 1021.22 1021.39 1021.52 1021.63 1021.71 1021.79 1021.90 1022.01 1022.11 1022.18 1022.23 1022.25 1022.21 1022.08 1022.06 1021.97 1022.03 1022.01 1021.91 1021.83
1014.97 1014.49 1013.61 1012.71 1011.93 1011.75 1011.73 1011.86 1012.24 1012.38 1012.75 1013.23 1013.88 1014.71 1015.81 1016.92 1017.29 1017.73 1017.97 1018.09 1018.39 1018.75 1019.34 1019.97 1020.45 1020.65 1020.83 1020.98 1021.14 1021.34 1021.51 1021.63 1021.72 1021.81 1021.91 1022.00 1022.12 1022.22 1022.30 1022.31 1022.25 1022.24 1022.25 1022.26 1022.21 1022.18 1022.18 1022.08 1021.99
1014.65 1014.33 1013.56 1012.45 1011.96 1011.94 1011.95 1012.19 1012.37 1012.53 1012.95 1013.54 1013.89 1014.80 1016.21 1017.56 1017.81 1017.95 1018.17 1018.42 1018.79 1018.92 1019.45 1019.98 1020.62 1020.85 1021.01 1021.17 1021.33 1021.47 1021.62 1021.75 1021.83 1021.93 1022.04 1022.15 1022.27 1022.32 1022.36 1022.41 1022.40 1022.38 1022.37 1022.30 1022.23 1022.15 1022.06 1021.93 1021.73
1014.96 1014.43 1013.36 1013.00 1012.39 1012.12 1012.47 1012.68 1012.45 1012.71 1013.11 1013.40 1013.94 1014.83 1016.90 1017.69 1018.03 1018.05 1018.33 1018.60 1019.33 1019.45 1019.54 1019.94 1020.38 1020.89 1021.25 1021.42 1021.63 1021.76 1021.83 1021.95 1022.02 1022.08 1022.18 1022.28 1022.33 1022.37 1022.42 1022.48 1022.44 1022.32 1022.23 1022.16 1022.09 1022.02 1021.89 1021.77 1021.59
1015.39 1014.87 1013.78 1013.32 1012.68 1012.77 1012.97 1012.77 1013.03 1012.91 1013.40 1014.24 1014.37 1014.50 1016.18 1017.15 1018.11 1018.17 1018.62 1019.51 1019.89 1019.98 1020.02 1020.22 1020.29 1020.74 1020.96 1021.35 1021.87 1022.03 1022.11 1022.21 1022.27 1022.29 1022.32 1022.37 1022.35 1022.38 1022.43 1022.40 1022.42 1022.45 1022.38 1022.27 1022.13 1021.92 1021.72 1021.61 1021.53
1015.65 1014.87 1013.81 1013.57 1013.24 1013.21 1013.21 1012.94 1013.30 1013.67 1013.65 1014.36 1014.87 1014.96 1015.48 1017.01 1017.82 1018.27 1018.68 1019.60 1019.98 1020.25 1020.41 1020.64 1020.86 1020.83 1020.89 1021.07 1021.66 1022.13 1022.25 1022.27 1022.33 1022.34 1022.47 1022.40 1021.99 1022.00 1022.01 1022.30 1022.42 1022.31 1022.16 1022.03 1021.95 1021.79 1021.59 1021.42 1021.10
1015.31 1014.89 1014.21 1014.27 1014.04 1013.74 1013.60 1013.28 1013.08 1013.38 1013.72 1014.28 1015.01 1015.94 1016.40 1017.31 1017.57 1017.99 1018.53 1019.20 1019.76 1020.13 1020.52 1020.68 1020.91 1020.75 1020.90 1021.18 1021.44 1021.82 1022.09 1021.94 1021.93 1022.02 1022.04 1022.01 1022.01 1021.99 1022.23 1022.20 1022.29 1022.22 1022.15 1021.99 1021.85 1021.66 1021.51 1021.20 1020.50
1015.33 1014.79 1014.72 1014.76 1014.56 1014.37 1013.91 1013.42 1013.24 1013.07 1013.25 1013.33 1014.06 1015.78 1016.80 1017.23 1017.58 1017.97 1018.30 1018.76 1019.37 1019.79 1020.45 1020.79 1020.48 1020.53 1020.79 1020.97 1021.16 1021.81 1022.12 1022.20 1022.24 1022.30 1021.98 1021.86 1021.90 1021.77 1021.69 1021.58 1021.45 1021.40 1021.59 1021.11 1021.05 1020.85 1020.67 1020.64 1020.47
1015.30 1015.12 1015.01 1015.07 1014.89 1014.57 1014.12 1013.71 1013.25 1013.11 1012.98 1013.61 1013.94 1015.43 1016.54 1017.01 1017.30 1017.60 1018.09 1018.55 1019.10 1019.48 1020.09 1020.37 1020.33 1020.59 1020.83 1020.93 1021.11 1021.21 1021.54 1022.01 1021.98 1021.88 1021.83 1021.75 1021.56 1021.48 1021.40 1021.26 1021.20 1021.17 1021.01 1020.94 1020.79 1020.64 1020.58 1020.34 1020.06
1015.30 1015.25 1015.07 1015.23 1014.85 1014.83 1014.36 1013.67 1013.45 1013.10 1013.27 1013.81 1014.40 1015.86 1016.49 1017.02 1017.34 1017.71 1018.17 1018.67 1018.95 1019.22 1019.56 1019.92 1020.18 1020.47 1020.73 1021.05 1021.06 1021.10 1021.28 1021.43 1021.37 1021.52 1021.69 1021.67 1021.47 1021.41 1021.33 1021.22 1021.09 1020.96 1020.82 1020.64 1020.54 1020.35 1020.19 1019.90 1019.54
1015.29 1015.52 1015.13 1015.09 1014.95 1014.89 1014.39 1013.74 1013.81 1013.35 1013.91 1014.26 1015.03 1016.01 1016.61 1016.97 1017.45 1018.05 1018.44 1018.68 1018.89 1019.06 1019.33 1019.81 1020.20 1020.44 1020.57 1020.73 1020.89 1020.99 1021.08 1021.21 1021.35 1021.36 1021.42 1021.59 1021.57 1021.40 1021.29 1021.12 1020.94 1020.78 1020.76 1020.81 1020.55 1020.30 1020.21 1019.61 1019.49
1015.76 1015.66 1015.51 1015.08 1015.04 1014.53 1014.01 1013.75 1013.34 1013.57 1014.13 1014.82 1015.49 1016.12 1016.69 1017.03 1017.57 1017.68 1017.90 1018.22 1018.65 1019.01 1019.32 1019.70 1020.02 1020.30 1020.45 1020.49 1020.78 1020.92 1020.97 1021.17 1021.13 1021.17 1021.24 1021.33 1021.35 1021.23 1021.17 1020.93 1020.79 1020.78 1020.77 1020.59 1020.32 1020.40 1020.02 1019.96 1019.47
1016.21 1016.22 1015.76 1014.85 1014.69 1014.27 1014.30 1013.33 1013.29 1013.78 1014.17 1014.75 1015.77 1016.16 1016.58 1017.03 1017.30 1017.12 1017.58 1018.06 1018.41 1018.75 1019.15 1019.56 1019.93 1020.09 1020.24 1020.39 1020.59 1020.75 1020.85 1020.99 1021.02 1021.09 1021.14 1021.25 1021.21 1021.14 1020.96 1020.81 1020.70 1020.73 1020.70 1020.58 1020.28 1020.09 1019.94 1019.72 1019.45
1016.08 1015.44 1015.21 1014.86 1014.49 1014.27 1014.12 1013.15 1013.65 1014.15 1014.12 1014.64 1015.41 1016.05 1016.37 1016.81 1016.83 1016.94 1017.49 1017.85 1018.23 1018.53 1018.86 1019.38 1019.76 1019.85 1020.18 1020.34 1020.49 1020.58 1020.86 1020.98 1021.11 1021.24 1021.42 1021.50 1021.45 1021.32 1020.98 1020.97 1021.15 1020.89 1020.85 1020.91 1020.82 1020.46 1020.39 1019.96 1019.72
1015.36 1015.48 1015.43 1014.84 1014.77 1014.45 1013.98 1013.27 1013.46 1013.83 1013.95 1014.30 1014.93 1015.49 1015.62 1016.18 1016.38 1016.93 1017.32 1017.75 1018.16 1018.55 1018.80 1019.16 1019.61 1019.74 1019.99 1020.24 1020.43 1020.67 1020.97 1021.50 1021.69 1021.85 1022.00 1022.01 1021.96 1021.82 1021.62 1021.66 1021.72 1021.51 1021.38 1021.40 1021.37 1021.19 1021.01 1020.75 1020.41
1015.24 1015.61 1015.26 1014.96 1014.94 1014.51 1013.83 1013.29 1013.00 1013.54 1013.77 1014.12 1014.45 1015.00 1015.31 1015.88 1016.65 1017.06 1017.41 1017.91 1018.28 1018.66 1018.80 1019.00 1019.38 1019.74 1019.69 1020.05 1020.37 1020.58 1021.01 1021.81 1022.24 1022.58 1022.64 1022.55 1022.66 1022.45 1022.26 1022.25 1022.26 1022.11 1022.06 1021.98 1021.90 1021.84 1021.45 1021.13 1020.90
1015.82 1015.58 1015.71 1015.72 1015.48 1015.02 1013.99 1013.36 1013.16 1013.30 1013.33 1013.55 1013.95 1014.52 1014.98 1015.82 1016.85 1017.43 1017.85 1018.27 1018.66 1018.96 1019.23 1019.45 1019.67 1019.92 1020.01 1020.08 1020.33 1020.65 1021.36 1022.16 1022.66 1023.05 1023.23 1023.26 1023.19 1023.16 1022.98 1022.84 1022.86 1022.79 1022.50 1022.54 1022.43 1022.23 1021.82 1021.39 1021.35
1016.36 1016.30 1015.76 1015.95 1016.29 1015.69 1014.72 1013.45 1013.04 1013.00 1013.24 1013.52 1013.84 1014.22 1014.84 1015.78 1016.67 1017.52 1018.32 1018.75 1019.21 1019.50 1019.69 1019.88 1020.19 1020.32 1020.46 1020.58 1020.83 1021.18 1021.90 1022.46 1022.94 1023.37 1023.61 1023.94 1023.80 1023.81 1023.85 1023.65 1023.53 1023.42 1023.23 1023.23 1023.16 1023.02 1022.67 1022.24 1021.81
1015.83 1015.95 1015.88 1016.20 1016.24 1015.90 1014.98 1012.99 1012.32 1012.50 1012.79 1013.41 1013.77 1014.15 1014.81 1015.92 1017.00 1017.67 1018.55 1019.25 1019.81 1020.53 1020.70 1020.72 1020.77 1020.73 1020.91 1021.01 1021.14 1021.27 1021.65 1022.34 1023.24 1023.72 1024.06 1024.36 1024.39 1024.55 1024.56 1024.33 1024.26 1024.27 1024.00 1023.93 1023.93 1023.77 1023.53 1023.19 1022.73
1014.66 1015.26 1016.03 1016.44 1016.27 1016.11 1015.61 1014.63 1012.09 1012.47 1012.31 1012.99 1013.62 1014.25 1015.04 1016.24 1017.33 1018.22 1019.01 1019.85 1020.51 1021.13 1021.50 1021.56 1021.55 1021.43 1021.57 1021.60 1021.86 1022.10 1022.59 1023.36 1023.86 1024.24 1024.55 1024.61 1024.80 1025.21 1025.27 1025.09 1025.07 1024.85 1024.80 1024.92 1024.69 1024.40 1024.18 1023.93 1023.71
1015.09 1015.73 1016.56 1016.62 1016.71 1016.42 1015.56 1014.64 1012.35 1012.32 1012.31 1012.92 1014.08 1014.90 1015.96 1017.08 1018.07 1019.07 1019.84 1020.38 1020.97 1021.58 1022.02 1022.33 1022.50 1022.55 1022.39 1022.23 1022.69 1023.17 1023.56 1024.20 1024.80 1024.78 1025.00 1025.16 1025.19 1025.47 1025.85 1025.76 1025.60 1025.54 1025.41 1025.25 1025.06 1024.98 1024.83 1024.74 1024.41
1015.18 1015.67 1016.47 1016.97 1017.07 1016.49 1015.97 1015.38 1013.27 1013.24 1013.21 1013.13 1013.92 1015.35 1016.56 1017.82 1018.80 1019.63 1020.23 1020.85 1021.40 1021.92 1022.47 1022.89 1023.36 1023.64 1023.46 1023.14 1023.11 1024.11 1024.74 1024.57 1025.51 1025.82 1025.57 1025.58 1025.77 1026.06 1026.32 1026.07 1026.00 1026.18 1026.33 1026.09 1025.83 1025.71 1025.57 1025.40 1025.04
1014.97 1014.96 1015.04 1015.27 1016.19 1016.57 1016.53 1015.16 1014.08 1014.16 1014.23 1014.21 1014.94 1016.09 1017.26 1018.35 1019.40 1020.28 1021.21 1021.76 1022.19 1022.84 1023.10 1023.33 1024.03 1024.67 1025.06 1024.66 1024.39 1024.38 1025.75 1025.87 1026.27 1026.71 1026.56 1026.55 1026.61 1026.77 1026.94 1026.65 1026.62 1026.55 1026.63 1026.67 1026.47 1026.13 1025.93 1025.92 1025.78
1014.98 1014.79 1015.31 1015.36 1016.69 1016.43 1015.95 1015.47 1014.47 1014.79 1014.99 1015.13 1015.92 1016.98 1017.89 1018.80 1019.95 1020.87 1022.07 1022.89 1022.96 1023.79 1024.11 1023.96 1024.59 1025.18 1025.10 1026.66 1026.01 1025.90 1026.89 1026.97 1027.39 1027.30 1027.17 1027.19 1027.40 1027.31 1027.30 1027.24 1027.12 1026.93 1026.83 1027.12 1027.04 1026.77 1026.88 1026.57 1026.46
1014.59 1014.93 1015.32 1015.29 1015.85 1015.70 1015.46 1015.06 1013.68 1014.52 1014.83 1015.47 1016.32 1017.29 1018.45 1019.52 1020.60 1021.33 1022.46 1023.75 1024.82 1023.72 1025.74 1024.56 1025.20 1026.24 1026.16 1027.49 1027.04 1027.05 1027.48 1027.93 1028.11 1027.96 1027.55 1027.71 1027.89 1027.84 1027.83 1027.60 1027.45 1027.26 1027.46 1027.68 1027.30 1027.16 1027.25 1026.98 1026.93
1015.31 1015.01 1015.24 1015.28 1015.40 1014.99 1014.83 1013.67 1013.41 1013.50 1014.61 1015.57 1016.62 1017.65 1018.75 1019.89 1020.78 1022.00 1022.59 1023.53 1025.24 1024.58 1025.45 1024.67 1025.45 1026.46 1026.75 1027.76 1027.87 1027.57 1028.00 1028.23 1028.69 1028.36 1028.39 1028.24 1028.51 1028.49 1028.44 1028.19 1028.04 1028.14 1028.15 1028.08 1027.69 1027.49 1027.46 1027.34 1027.12
1015.01 1015.01 1014.87 1015.05 1015.68 1015.46 1014.81 1013.97 1014.13 1014.16 1014.83 1015.98 1017.00 1018.26 1019.47 1020.28 1021.10 1021.76 1022.85 1023.77 1024.67 1025.26 1025.64 1025.39 1026.07 1026.61 1027.65 1027.73 1027.98 1028.29 1028.54 1028.69 1029.05 1028.95 1028.95 1028.86 1028.87 1028.90 1028.77 1028.58 1028.56 1028.70 1028.43 1028.31 1028.17 1027.99 1027.94 1027.60 1027.45
Wind_Speed
7 5 2 4 5 5 2 3 1 4 6 3 4 3 2 7 5 5 7 7 15 15 14 14 11 13 13 12 12 13 13 14 13 12 13 13 11 11 11 10 9 9 10 10 10 9 8 8 8
4 3 3 1 5 6 5 1 4 4 5 9 7 5 2 5 4 8 11 9 17 14 12 12 10 12 13 11 11 12 12 12 12 12 11 11 10 10 10 8 7 8 8 8 8 8 8 8 8
3 2 4 3 3 5 3 2 3 7 7 5 4 3 2 4 6 10 7 16 16 14 12 12 10 12 13 11 12 12 11 10 10 10 9 9 8 8 8 6 7 6 5 6 6 7 6 6 7
2 4 3 6 7 3 1 3 5 11 4 2 4 7 5 2 10 5 15 17 16 14 13 12 12 12 13 11 11 10 9 9 8 8 8 7 7 7 6 6 5 6 9 6 4 3 4 5 7
1 2 5 6 6 2 4 1 10 10 8 7 3 5 6 5 4 13 16 15 15 14 12 13 11 11 11 12 11 10 8 8 7 7 6 6 6 6 6 5 5 5 5 5 6 5 6 7 8
3 2 5 8 7 3 2 1 9 7 5 8 6 8 7 4 10 13 15 14 13 14 13 13 9 9 9 9 9 9 8 7 7 7 6 6 5 4 4 4 4 4 4 5 5 5 5 6 6
3 3 4 4 4 4 2 4 7 7 6 6 9 7 5 6 10 14 14 12 11 11 12 12 11 10 6 7 7 6 6 6 6 6 5 5 4 4 3 4 4 3 3 4 4 5 6 7 7
1 3 3 4 6 3 2 4 1 5 5 5 1 5 7 11 14 15 14 11 11 10 10 9 10 10 9 8 5 4 4 4 4 4 4 3 2 2 2 2 2 6 6 7 7 6 7 8 9
2 4 5 3 4 4 3 4 4 2 7 2 3 2 3 19 18 15 14 11 9 8 9 9 8 7 7 7 6 4 1 2 3 4 2 3 2 2 2 4 4 6 6 7 8 8 8 8 11
7 4 4 2 2 2 3 4 7 6 8 5 5 7 15 19 18 17 16 14 13 11 10 8 8 8 7 5 6 4 2 3 2 2 2 2 3 3 5 5 5 7 5 7 7 7 8 8 5
7 6 3 2 1 4 4 2 2 4 7 7 11 14 17 18 17 16 15 14 14 13 9 9 10 9 8 6 5 3 2 2 2 3 4 3 3 3 3 3 2 3 1 4 4 4 4 6 6
8 8 3 2 1 4 5 6 3 6 1 3 4 18 18 19 18 17 15 14 14 13 12 11 10 8 7 4 4 4 4 4 3 4 4 3 3 3 3 3 3 3 3 5 4 4 5 6 7
16 6 5 7 5 6 6 4 6 8 4 3 13 18 19 18 16 13 11 10 12 12 12 11 10 8 6 6 4 4 3 3 2 3 3 3 3 3 3 4 4 4 4 4 4 5 5 7 8
12 12 11 6 5 7 6 5 3 3 5 10 14 16 17 18 17 12 11 11 11 10 11 9 9 8 7 6 6 4 3 3 2 1 2 3 4 4 4 4 4 4 4 4 5 6 6 7 8
10 10 12 13 6 7 5 7 5 2 7 10 11 13 15 15 14 14 13 11 11 9 9 9 9 8 8 7 5 4 3 2 1 1 2 3 4 5 5 5 5 5 5 6 5 5 4 5 5
5 3 10 9 8 3 8 5 1 3 8 10 11 12 14 14 15 14 12 10 9 8 9 9 7 8 8 6 5 3 2 1 1 2 2 4 4 5 5 4 4 5 4 4 4 5 5 5 7
8 8 13 8 6 5 10 4 4 4 7 9 11 11 13 14 15 13 12 10 9 9 8 8 9 8 7 6 4 3 2 1 3 3 4 6 6 5 3 4 4 5 4 5 6 6 6 6 6
10 7 20 15 8 7 10 7 3 4 6 8 9 12 13 14 15 13 11 10 8 8 7 7 7 7 6 4 3 3 4 5 5 6 6 7 6 7 5 5 7 6 5 6 7 7 6 5 8
9 20 11 14 5 8 13 10 9 4 5 9 10 11 12 13 8 10 9 8 8 6 8 8 7 6 6 5 4 4 5 5 6 6 8 8 8 8 8 6 7 6 6 7 8 6 6 5 8
1 13 19 2 3 5 8 13 11 7 7 11 12 13 14 13 11 8 8 7 6 7 6 6 6 5 4 4 4 4 6 6 7 6 8 9 10 10 8 7 7 8 5 8 8 9 6 4 6
9 10 8 6 7 4 6 12 8 8 7 6 10 12 13 14 13 10 8 7 7 7 7 7 6 6 5 7 7 8 9 6 5 5 6 8 10 10 9 9 7 7 7 6 8 9 9 6 6
14 18 6 10 12 6 11 6 14 14 11 9 10 13 14 13 11 10 10 9 7 6 6 7 7 7 5 5 6 7 5 6 4 6 6 7 10 10 9 9 9 8 6 8 7 7 7 7 7
7 14 9 7 8 4 7 10 10 11 16 11 13 12 12 12 12 12 11 10 9 7 7 7 9 10 9 9 8 7 9 8 6 5 7 8 9 11 10 10 9 9 7 8 8 8 8 5 5
14 11 5 3 3 6 10 15 12 9 13 13 8 10 10 11 11 12 11 11 11 9 9 8 10 11 11 12 12 11 11 9 6 6 6 5 6 6 9 9 8 9 8 8 7 7 8 7 6
3 13 2 3 3 2 1 11 10 1 4 8 14 13 12 12 12 12 13 12 11 11 11 10 10 10 10 11 13 12 9 11 8 6 5 5 5 6 8 9 9 8 9 8 7 8 8 8 7
12 7 4 6 6 4 2 7 5 3 2 3 10 13 14 14 12 12 11 11 12 10 11 10 9 10 9 10 10 13 9 6 6 6 6 5 5 6 7 7 8 8 9 8 7 6 6 7 6
5 8 2 6 3 3 4 2 7 3 6 11 15 16 15 16 14 14 11 10 11 9 9 10 11 9 12 8 9 12 7 8 7 7 6 5 5 5 7 7 7 8 9 8 7 7 8 8 8
6 9 4 2 8 5 4 3 7 10 12 13 16 16 16 16 16 15 11 9 3 12 5 11 12 8 10 7 7 8 8 6 5 5 7 7 6 6 6 7 7 8 8 8 7 7 8 7 6
6 5 2 4 2 3 5 4 1 10 14 15 15 16 18 17 16 13 11 11 4 8 5 9 9 8 9 7 6 8 6 6 5 6 6 7 6 6 6 7 8 7 7 7 7 7 8 7 8
2 5 4 3 5 0 1 2 1 3 13 15 16 16 16 15 15 12 11 12 9 8 8 9 9 10 7 7 7 6 5 6 5 5 6 5 6 6 7 7 7 6 7 7 8 8 8 8 9
Wind_Direction
152 148 237 221 229 243 193 136 314 154 156 85 121 223 78 28 348 47 143 119 140 149 138 150 145 141 135 125 114 106 108 114 117 119 116 113 108 103 95 91 85 77 81 81 81 81 79 69 55
206 164 227 244 244 217 143 123 207 139 103 126 119 131 116 79 48 115 137 151 148 146 148 148 148 142 139 133 120 109 105 103 101 98 95 95 93 92 88 89 101 83 82 84 79 75 66 55 44
195 255 264 233 219 223 155 197 141 124 132 160 130 21 58 70 123 140 119 148 147 146 144 132 143 144 145 134 121 115 109 106 104 103 99 95 91 90 86 76 56 71 84 86 72 67 59 44 27
241 189 191 244 195 180 235 100 147 148 141 154 140 101 105 351 145 139 143 149 152 147 145 140 143 152 148 139 128 118 115 112 109 106 103 100 98 97 89 77 69 59 43 64 43 60 35 21 8
287 233 236 238 192 180 219 70 174 166 137 143 160 123 93 94 114 140 148 154 151 147 144 145 146 149 152 139 134 131 126 120 116 111 108 110 109 102 91 90 82 65 46 33 31 19 4 0 357
236 278 220 219 186 169 130 146 176 180 150 137 136 131 118 109 134 151 150 152 154 150 151 143 136 135 141 143 142 140 134 129 126 122 115 107 105 95 91 65 46 37 27 19 12 5 352 340 341
313 246 213 244 191 148 20 168 187 182 158 157 131 134 106 171 151 152 153 145 153 160 157 157 159 155 146 142 144 141 134 128 126 122 109 97 88 77 59 35 12 2 349 344 343 338 331 323 320
270 265 213 210 190 104 108 144 237 201 148 116 184 165 168 173 157 153 148 148 161 167 160 165 165 168 166 158 152 144 127 119 121 122 119 103 112 72 91 289 61 337 336 335 329 322 315 313 315
189 235 213 186 178 92 39 217 134 114 141 156 106 87 100 145 153 155 152 156 161 172 175 174 169 180 173 168 132 150 121 174 158 164 128 213 289 316 306 46 330 314 301 298 306 307 307 305 271
216 228 193 61 62 23 342 284 155 181 163 168 149 89 131 152 158 160 168 168 175 178 187 185 180 190 179 174 162 172 192 252 223 240 281 297 313 324 312 287 288 289 300 289 298 305 299 266 319
183 225 147 151 73 346 338 39 179 197 202 196 189 153 155 163 167 170 177 175 183 181 185 191 195 187 191 185 178 171 195 208 224 254 267 278 281 285 286 300 297 319 200 312 311 311 316 323 313
193 216 197 243 75 334 340 323 284 233 99 18 177 159 159 170 175 176 180 177 181 183 189 187 196 192 197 197 197 188 188 188 211 220 256 268 271 277 287 302 316 302 319 318 316 314 312 301 294
216 186 226 240 290 289 300 299 291 255 203 112 139 157 169 171 177 178 179 182 182 185 183 188 190 197 192 199 195 190 203 209 218 232 253 270 285 298 312 310 303 308 308 306 307 304 303 299 295
199 222 237 265 252 270 271 281 264 78 131 133 150 166 174 174 176 178 185 188 188 185 184 184 191 197 186 201 194 196 189 200 236 264 303 293 296 306 311 305 302 300 322 310 296 302 300 299 310
212 198 232 253 232 228 204 242 232 100 152 146 159 166 175 178 177 188 185 182 184 189 181 186 189 193 198 196 202 207 197 229 260 304 318 315 302 305 300 301 307 323 296 296 308 305 312 301 312
152 110 196 182 182 192 210 205 238 158 177 164 163 169 175 176 190 189 180 180 183 180 186 186 185 197 200 202 195 200 198 224 325 339 334 346 328 311 302 312 321 335 326 332 324 346 337 333 326
175 191 197 189 204 166 221 204 129 186 184 177 170 173 175 183 190 183 178 183 183 183 183 189 196 196 202 209 213 192 150 84 58 47 35 32 35 16 14 24 19 3 6 3 352 353 353 339 338
189 181 201 198 178 205 204 228 164 174 190 192 181 180 178 183 185 179 177 183 180 184 183 181 188 187 185 179 170 135 105 78 66 56 52 44 44 36 40 43 32 20 20 12 4 4 4 355 345
167 200 201 197 167 200 214 226 236 180 195 204 186 185 181 185 159 184 174 167 162 170 178 179 176 177 173 167 166 161 120 103 84 69 57 54 43 44 41 44 35 31 34 25 16 357 356 359 350
106 190 206 124 337 223 221 236 238 199 215 217 193 186 186 166 170 157 157 145 157 142 145 146 139 144 162 156 137 119 122 91 88 82 66 53 53 45 47 43 40 31 31 28 19 12 353 357 12
248 264 170 161 169 266 233 241 217 213 219 212 211 192 190 185 169 157 149 137 135 132 130 125 114 108 105 119 118 111 112 118 103 78 68 51 54 52 45 46 43 40 37 29 20 11 14 352 357
214 220 191 143 160 198 222 246 209 209 202 201 197 194 185 180 170 153 144 134 117 101 99 101 101 97 96 143 143 146 135 126 97 94 84 72 55 52 46 47 43 39 37 34 21 16 11 -0 356
220 158 164 161 180 131 202 234 204 196 212 196 193 191 181 172 165 150 135 121 105 102 91 92 93 84 80 85 99 108 102 101 105 100 92 78 67 51 41 38 39 39 35 28 26 22 19 19 357
137 111 51 137 169 211 194 215 218 189 202 194 178 173 161 151 140 128 122 122 111 104 95 86 86 80 81 82 77 86 95 96 97 98 87 74 69 55 40 39 38 35 29 24 22 20 28 15 14
133 160 153 143 191 227 322 210 247 181 215 220 181 161 149 143 140 138 136 129 123 115 109 96 90 86 86 88 92 85 87 91 89 79 81 84 64 49 34 32 33 29 21 22 24 29 29 21 21
182 175 184 165 180 137 311 217 217 322 335 116 139 141 138 137 134 130 124 122 117 109 102 95 86 79 62 65 79 77 72 87 87 74 71 61 59 46 32 38 41 41 36 27 31 41 35 28 24
158 198 97 104 29 150 200 295 269 163 162 148 143 147 143 136 131 122 114 111 111 96 99 96 91 72 75 55 74 80 78 76 79 74 72 65 54 50 47 47 48 47 44 34 32 39 29 31 25
212 138 103 33 153 209 189 258 228 201 182 165 156 151 143 134 128 121 100 82 40 98 77 87 90 92 83 83 90 84 75 71 72 76 71 71 64 56 55 56 51 51 46 38 42 43 34 37 32
153 158 86 99 308 174 160 211 157 203 180 171 159 153 148 142 134 133 120 116 147 99 106 90 100 114 114 122 106 98 94 92 80 69 66 61 61 56 56 53 55 54 50 41 44 44 31 28 25
311 137 158 180 178 245 348 96 81 172 173 169 152 150 151 148 147 140 147 150 156 154 148 136 144 135 129 109 101 103 96 79 72 72 71 72 72 61 60 59 63 61 49 39 34 31 22 20 15